Location: Squirrel Cove
(50.1074°N, 124.9139°W)
Time: 19:17:32
(UTC-08:00)

Envisat - Pass Details

Date: 30 November 2022
Orbit: 763 x 765 km, 98.2° (Epoch: 05 February)

Event Time Altitude Azimuth Distance (km) Brightness Sun altitude
Rises 03:13:05 0° 28° (NNE) 3,245 6.7 -44.1°
Reaches altitude 10° 03:16:21 10° 50° (NE) 2,313 6.0 -43.6°
Enters shadow 03:17:04 12° 57° (ENE) 2,163 5.9 -43.5°
